This is the latest recevied weather packets stored in our database for station/object N5ATR. If no packets are shown the sender has not sent any weather packets the latest 10 day(s).
| Time | Temp. | Humidity | Pressure | Rain* | Wind** | Luminosity | Snow |
|---|---|---|---|---|---|---|---|
| 1787895011 | 17.78° C | 70% | 1027.8 hPa | 0 mm | - | 0 W/m² | - |
| 1787894706 | 17.78° C | 63% | 1027.6 hPa | 0 mm | - | 0 W/m² | - |
| 1787894401 | 17.22° C | 71% | 1027.8 hPa | 0 mm | - | 0 W/m² | - |
| 1787894096 | 18.89° C | 68% | 1027.7 hPa | 0 mm | - | 0 W/m² | - |
| 1787893793 | 18.89° C | 58% | 1027.8 hPa | 0 mm | - | 0 W/m² | - |
| 1787893488 | 19.44° C | 56% | 1027.7 hPa | 0 mm | - | 0 W/m² | - |
| 1787893183 | 19.44° C | 53% | 1027.3 hPa | 0 mm | - | 0 W/m² | - |
| 1787892880 | 20° C | 54% | 1027.4 hPa | 0 mm | - | 0 W/m² | - |
| 1787892576 | 20.56° C | 49% | 1027.3 hPa | 0 mm | - | 0 W/m² | - |
| 1787892272 | 20° C | 52% | 1027.4 hPa | 0 mm | - | 0 W/m² | - |
| 1787891968 | 20° C | 54% | 1027.4 hPa | 0 mm | - | 0 W/m² | - |
| 1787891662 | 19.44° C | 54% | 1027 hPa | 0 mm | - | 0 W/m² | - |
| 1787891359 | 20.56° C | 50% | 1027.2 hPa | 0 mm | - | 0 W/m² | - |
| 1787891052 | 21.67° C | 45% | 1027.3 hPa | 0 mm | - | 0 W/m² | - |
| 1787890752 | 21.11° C | 45% | 1026.8 hPa | 0 mm | - | 0 W/m² | - |
| 1787890446 | 21.11° C | 46% | 1026.8 hPa | 0 mm | - | 0 W/m² | - |
| 1787890142 | 21.11° C | 47% | 1027 hPa | 0 mm | - | 0 W/m² | - |
| 1787889841 | 21.67° C | 48% | 1027.2 hPa | 0 mm | - | 0 W/m² | - |
| 1787889537 | 21.67° C | 46% | 1027.1 hPa | 0 mm | - | 0 W/m² | - |
| 1787889237 | 20.56° C | 50% | 1027.1 hPa | 0 mm | - | 0 W/m² | - |
| 1787888931 | 20.56° C | 49% | 1027.2 hPa | 0 mm | - | 0 W/m² | - |
| 1787888626 | 21.11° C | 47% | 1027.3 hPa | 0 mm | - | 0 W/m² | - |
| 1787888321 | 21.11° C | 47% | 1027.3 hPa | 0 mm | - | 0 W/m² | - |
| 1787888017 | 21.11° C | 47% | 1027.4 hPa | 0 mm | - | 0 W/m² | - |
| 1787887712 | 20° C | 52% | 1027.4 hPa | 0 mm | - | 0 W/m² | - |
* Rain latest hour (hover to see other rain measurements)
** Current wind speed in m/s (hover to see current wind gust speed)